Wind_Speed
15 15 15 16 16 15 15 15 14 14 14 14 14 13 13 13 12 11 11 11 11 11 12 12 12 12 12 12 12 13 13 14 14 14 14 14 14 13 12 11 10 10 9 8 8 10 9 8 9 11 12 12 12 12 13 13 12 12 12 11 10 10 10 9 9 8 8 8 8 8 8 8 7 6 6 6 6 6 6 6 6 7 7 6 6
15 15 15 16 16 16 16 16 15 15 15 15 15 14 14 13 13 12 11 11 11 12 12 13 13 13 13 13 13 13 14 14 14 14 15 15 15 15 14 13 12 11 11 11 10 10 10 10 10 10 11 12 12 13 13 13 13 13 12 12 11 10 10 10 9 9 8 8 8 8 8 8 8 7 7 6 6 6 6 6 6 6 6 6 6
17 17 17 17 16 16 16 16 17 16 16 16 16 15 14 14 14 14 13 12 12 12 13 13 14 14 14 14 14 14 14 15 15 15 15 16 16 16 16 15 14 13 13 13 12 11 12 12 11 11 11 12 12 12 12 13 13 13 13 13 12 11 11 10 10 9 9 9 8 8 8 8 8 8 7 7 7 7 6 6 6 6 6 5 5
18 18 18 18 18 17 17 17 17 17 17 17 16 16 15 15 15 15 15 14 14 14 13 14 15 15 15 15 15 15 15 16 16 16 16 16 17 17 17 17 16 15 14 14 14 13 13 13 13 13 12 12 12 12 12 12 12 13 13 13 13 13 12 12 11 11 10 10 10 9 9 9 9 9 9 9 8 8 7 6 6 5 5 5 5
19 19 20 20 20 19 19 18 18 18 18 18 18 18 17 17 17 17 17 17 16 15 15 14 15 15 15 15 15 15 16 16 17 16 16 16 17 18 18 19 19 18 17 16 16 16 15 14 14 15 14 14 14 13 13 13 13 13 13 13 13 13 13 13 13 12 12 12 11 11 11 10 10 10 10 10 9 9 8 7 6 6 5 5 5
20 20 21 22 22 22 21 20 19 19 19 19 19 19 19 18 18 18 19 18 18 17 16 16 15 15 16 15 15 15 16 17 17 17 16 16 16 18 19 19 20 20 19 18 18 18 18 17 16 16 16 16 15 15 15 14 14 14 14 14 14 14 14 14 14 14 13 13 12 12 12 12 12 12 11 11 11 10 9 8 8 7 6 6 6
19 20 21 22 24 24 23 22 21 21 21 21 21 21 21 20 20 19 19 19 19 18 18 17 16 16 16 16 15 15 16 17 17 17 17 17 17 18 19 20 20 21 20 19 19 20 20 19 18 17 17 17 17 17 16 16 16 15 15 15 15 15 15 15 15 15 14 14 14 13 13 13 13 13 13 12 12 11 11 10 9 9 8 8 8
20 21 22 23 25 25 24 24 23 24 24 23 22 22 22 22 22 21 21 20 20 19 19 19 18 17 16 16 16 16 16 17 18 18 19 18 18 18 18 19 20 20 21 21 20 20 21 20 20 19 18 18 18 18 17 17 17 16 16 15 15 16 16 16 15 15 15 14 14 14 14 14 14 13 13 13 13 12 12 11 11 11 10 10 9
22 22 22 24 25 24 24 25 24 25 26 26 25 24 24 24 24 23 22 22 21 21 20 20 19 18 16 16 17 17 17 18 18 19 20 20 19 18 18 18 19 20 21 21 21 21 22 22 22 21 20 19 19 19 19 18 18 17 17 16 16 16 16 16 16 16 15 15 15 14 14 14 13 13 13 13 13 12 12 12 12 12 12 12 11
25 23 23 25 26 26 26 26 25 25 26 27 26 27 26 25 25 25 24 23 23 22 22 21 20 19 18 18 18 18 19 19 19 20 21 22 21 19 18 18 19 19 20 21 22 22 22 23 23 23 23 22 21 21 20 19 19 19 18 18 18 18 17 17 17 16 16 15 15 14 14 14 14 13 13 13 13 12 12 13 13 13 13 13 13
25 24 24 26 27 28 28 28 27 26 27 26 25 27 28 27 27 26 26 25 25 24 23 22 21 21 21 20 20 20 20 20 21 22 23 23 22 21 20 20 20 19 20 21 22 22 23 23 24 24 24 23 23 22 22 21 20 20 20 19 19 19 19 18 17 17 16 16 16 15 15 14 14 14 14 14 13 13 13 13 14 14 14 14 14
27 27 26 27 28 30 29 29 28 26 26 25 25 26 26 27 29 28 28 28 27 27 25 24 23 23 24 24 23 23 22 22 22 23 24 24 24 24 23 22 22 21 20 20 21 22 22 23 23 24 24 23 24 24 23 22 22 21 21 21 21 21 21 20 20 19 18 17 17 17 16 15 15 15 15 14 14 14 14 15 15 15 15 16 15
28 28 28 28 29 30 29 29 28 27 26 27 27 27 26 27 28 30 31 30 30 29 28 26 25 25 25 25 25 25 25 24 24 26 26 26 26 26 26 25 25 24 23 22 22 22 23 23 24 24 24 24 24 24 24 23 23 22 22 22 22 23 23 22 22 21 20 19 19 18 18 17 16 16 16 16 15 15 15 16 16 16 16 17 17
23 24 25 26 28 30 29 29 28 28 28 28 28 28 28 28 29 31 32 31 30 30 30 28 27 26 24 24 25 25 26 27 28 28 28 28 28 28 28 27 27 26 25 25 24 24 24 24 24 24 25 25 25 24 24 24 23 23 22 22 22 23 23 22 22 22 21 21 20 20 19 19 18 17 17 17 17 17 16 16 17 17 17 17 18
23 23 24 25 26 29 30 29 28 28 29 30 30 28 27 29 31 33 33 32 32 31 32 30 29 28 23 22 23 21 22 25 27 29 28 28 29 29 29 30 29 28 28 27 27 26 25 25 26 26 26 26 26 26 26 25 24 24 23 23 22 22 22 21 21 20 20 20 20 20 20 20 20 19 18 18 18 18 18 18 18 18 18 18 18
25 25 26 26 27 27 28 29 28 28 30 30 31 30 28 29 31 33 34 33 33 33 32 31 30 28 22 21 22 18 19 20 19 22 25 26 28 29 29 29 29 29 30 30 29 28 27 27 27 27 27 27 26 26 27 26 26 26 25 24 24 23 23 22 21 21 21 21 20 21 21 21 21 20 20 19 19 19 19 20 19 19 19 19 19
27 27 27 26 26 26 26 26 26 29 31 30 31 31 30 30 31 34 36 35 35 34 32 30 31 30 28 26 22 19 21 18 14 18 22 22 23 23 24 25 25 26 28 30 30 30 29 28 29 29 29 29 28 28 28 27 27 27 26 26 26 25 25 25 24 24 23 23 22 22 22 22 23 22 22 22 21 21 21 21 21 21 21 20 20
28 28 28 27 26 26 25 24 24 28 31 29 29 30 30 30 31 34 36 35 34 33 30 29 29 30 31 32 30 27 24 20 16 16 18 20 21 20 20 20 21 23 25 28 29 31 30 30 30 30 29 29 29 30 30 29 29 28 27 26 26 26 26 26 26 25 24 24 23 22 22 23 24 24 25 24 24 23 23 23 23 23 22 22 21
26 27 28 27 27 27 26 24 23 25 28 28 27 26 26 25 27 31 33 32 32 32 32 31 30 31 33 34 35 35 33 29 24 18 16 18 20 21 21 20 21 21 23 25 27 29 30 30 31 31 30 29 29 30 31 31 31 30 29 28 27 26 26 26 26 26 25 25 24 23 23 23 24 25 26 26 26 26 25 25 24 24 24 23 23
24 25 26 27 26 26 25 24 23 23 25 26 25 23 23 23 26 29 28 29 30 30 32 33 33 34 33 34 35 36 36 35 31 26 23 23 23 22 22 21 22 23 23 24 24 26 28 29 30 30 31 30 30 30 30 31 31 32 31 30 29 28 27 27 27 27 27 26 26 25 24 24 24 25 26 27 27 28 27 26 26 26 25 25 24
23 24 25 25 24 24 24 24 22 21 21 23 23 21 22 24 27 28 26 25 27 29 32 33 34 34 31 33 36 33 32 32 31 31 29 28 27 24 21 19 20 23 25 25 25 25 26 27 27 29 30 31 31 31 31 31 32 33 32 32 31 30 29 29 29 29 29 29 28 27 26 25 25 25 25 26 27 27 27 27 27 26 26 26 26
20 21 22 22 20 20 21 21 19 19 19 20 20 21 22 22 23 23 23 24 24 27 31 32 33 33 31 32 35 32 29 27 26 29 28 27 28 26 21 18 18 21 23 24 25 26 26 27 27 27 28 29 30 29 30 30 31 33 33 32 32 32 31 31 31 31 31 30 29 28 27 27 26 26 26 25 25 26 26 26 26 26 26 26 26
18 18 18 17 17 17 18 18 18 18 19 18 19 19 20 19 17 17 19 23 24 24 27 28 27 29 30 32 34 32 30 28 25 26 26 25 25 24 21 20 21 22 24 24 24 24 26 27 28 29 28 28 28 27 27 27 28 30 31 31 32 32 32 32 32 32 31 31 30 29 28 28 28 28 28 27 26 26 26 26 26 26 26 27 27
17 17 15 15 16 17 18 18 17 18 18 18 19 18 17 16 15 15 15 18 21 21 23 24 24 26 29 30 31 28 28 30 28 26 27 26 26 26 25 23 23 25 26 26 26 25 25 27 28 30 31 31 30 30 29 29 29 28 28 29 29 31 31 32 32 32 31 30 29 28 28 28 28 28 29 28 28 27 27 26 26 27 27 28 28
18 17 16 16 17 17 18 18 18 17 18 18 18 18 18 18 17 16 15 16 17 18 20 21 20 23 26 26 26 25 26 30 29 27 27 26 27 29 29 27 26 27 27 27 28 28 28 29 28 29 31 32 32 32 32 31 31 30 28 27 28 28 30 31 31 32 31 30 29 28 28 28 28 28 29 29 29 29 28 28 28 28 28 29 29
19 18 18 17 18 18 18 19 19 18 18 18 18 18 18 19 19 18 18 18 19 19 20 21 20 22 25 26 26 26 27 29 28 28 28 27 28 30 29 28 28 29 28 27 27 28 30 31 30 29 30 32 32 32 32 32 32 31 28 26 27 26 27 28 29 30 30 29 28 28 27 27 27 28 28 29 29 29 29 30 30 30 30 29 29
18 18 18 18 18 19 19 20 20 20 19 18 18 18 18 19 20 20 21 22 23 23 23 23 24 25 26 27 27 28 30 30 30 30 30 29 30 31 30 30 30 30 30 28 28 30 31 32 32 31 30 30 31 31 30 30 30 29 27 26 26 26 25 25 25 26 27 27 27 27 27 28 28 29 29 30 30 31 31 31 32 32 32 31 30
16 15 16 17 17 18 19 20 20 21 21 20 19 19 19 19 20 21 22 23 25 27 26 27 29 29 29 30 30 31 32 32 31 30 30 30 30 30 30 30 31 32 31 29 31 32 31 29 31 33 31 28 30 31 29 27 28 27 26 26 27 27 26 25 25 25 26 26 27 27 27 27 27 28 28 29 30 31 32 32 32 32 33 32 32
16 15 15 15 16 17 18 19 20 20 20 20 20 20 20 21 22 22 23 24 25 27 28 30 32 32 33 34 34 34 33 33 33 32 32 32 32 32 31 30 31 34 33 31 33 32 29 27 28 32 32 27 27 29 27 26 26 26 25 25 25 26 25 25 25 25 25 25 25 26 25 25 25 26 27 28 29 30 30 31 31 31 31 32 32
16 16 16 16 16 16 17 18 19 19 20 20 20 20 21 22 23 24 26 27 27 27 28 30 33 33 33 35 37 36 36 37 37 36 35 35 35 34 33 31 31 35 35 34 36 34 29 28 30 32 32 28 24 26 27 25 24 23 23 23 23 23 23 22 23 23 23 23 23 23 23 24 24 25 26 27 28 28 28 28 29 29 29 30 30
17 17 17 17 17 16 16 17 18 19 20 21 21 21 21 21 22 23 25 27 28 28 29 30 32 33 33 34 37 38 39 41 41 39 38 37 36 36 36 35 33 34 35 34 38 39 33 30 30 30 31 30 25 25 27 24 21 21 21 19 19 19 20 21 22 22 22 22 22 22 22 23 24 24 25 25 26 26 27 27 27 27 27 28 28
17 18 17 16 16 16 17 18 19 20 21 21 21 21 21 21 21 22 23 24 26 27 28 30 31 33 34 34 36 38 37 38 40 39 38 38 38 37 36 36 35 34 33 34 40 42 36 32 31 29 29 29 26 25 26 24 22 21 20 18 16 16 17 19 20 20 20 20 20 21 21 21 22 23 24 25 25 26 26 27 27 26 26 26 26
16 16 16 15 15 16 18 19 21 21 21 20 20 21 21 22 22 22 22 24 25 25 27 29 30 31 33 34 36 37 34 35 37 36 35 37 38 37 36 36 36 35 32 33 38 40 36 33 32 30 27 27 26 25 26 26 25 23 21 19 16 16 17 18 18 18 18 19 19 20 20 21 22 22 23 24 25 26 27 27 27 27 27 27 26
15 15 15 15 15 16 18 20 21 21 20 20 20 20 21 22 21 21 22 24 26 27 28 30 30 31 34 35 36 36 34 35 37 35 34 36 37 36 36 36 35 34 33 33 35 36 35 32 30 29 28 27 28 28 27 27 26 25 25 23 20 19 19 19 19 19 18 18 19 19 20 20 21 21 22 23 24 25 25 26 26 26 27 27 28
16 15 14 15 16 17 18 20 21 20 19 19 19 20 21 22 22 22 23 25 25 26 27 29 31 32 33 35 37 36 34 35 36 37 37 36 37 37 36 36 34 33 34 34 33 33 33 32 29 28 28 27 28 28 28 29 28 27 28 28 24 22 21 22 23 23 21 20 19 19 20 20 21 21 22 22 22 23 24 24 25 25 25 26 27
16 16 15 15 16 17 18 20 21 19 18 19 19 19 20 21 22 24 27 28 26 26 26 27 30 31 31 34 37 36 35 36 36 37 38 38 38 38 38 36 35 34 34 34 34 33 31 31 30 28 28 28 27 26 27 29 30 28 29 30 28 25 23 23 24 25 24 22 21 21 21 21 22 22 23 23 24 24 24 24 25 25 25 25 25
16 16 15 15 16 17 18 19 19 17 17 17 18 20 21 21 22 25 28 29 28 27 29 28 29 31 31 33 34 34 35 38 36 36 39 40 40 40 38 36 36 35 33 34 34 34 33 32 31 30 29 28 27 26 26 27 29 30 29 30 29 26 25 25 25 26 25 24 23 23 22 23 23 23 23 24 25 25 25 25 25 25 25 24 24
16 16 15 15 15 16 17 18 17 16 18 19 19 21 22 22 22 26 29 30 29 30 33 33 31 29 29 31 32 32 34 36 36 37 38 38 39 40 39 36 35 34 34 34 34 34 34 33 32 31 30 29 27 28 29 28 30 30 28 28 28 26 25 26 26 25 25 25 24 24 24 24 23 23 23 24 25 26 26 26 25 25 25 25 24
16 16 16 16 16 16 17 18 18 18 19 21 21 23 23 22 22 25 29 31 31 32 35 36 33 28 27 28 30 33 33 33 35 36 36 35 37 40 40 37 35 34 34 35 34 34 34 34 33 31 30 30 29 30 31 30 29 28 27 27 27 26 25 26 26 25 25 25 25 25 26 25 24 23 23 24 25 26 26 26 25 25 25 25 25
17 16 16 17 17 17 18 20 20 20 20 21 23 24 24 23 22 24 28 30 32 35 37 35 31 27 26 26 28 32 33 32 33 34 34 34 35 37 39 38 36 36 36 36 36 35 34 34 34 31 30 31 31 30 29 28 27 27 26 25 25 25 25 25 25 26 26 26 26 26 27 26 25 23 23 24 25 25 25 25 25 25 25 25 25
18 17 17 17 18 19 19 20 21 22 21 20 23 26 25 23 22 24 28 30 33 36 38 35 30 27 27 27 27 30 32 32 33 33 34 34 34 35 38 38 39 39 38 37 37 36 35 34 33 31 32 34 32 29 28 28 30 28 25 25 26 25 25 24 24 26 27 27 27 27 28 27 25 24 24 24 24 24 23 24 25 25 25 24 24
19 19 18 18 18 19 20 21 21 21 21 21 23 25 25 22 21 23 27 30 32 36 37 34 31 29 29 28 27 28 30 31 33 34 35 35 35 36 36 37 40 41 39 39 40 38 36 36 35 32 34 34 31 30 29 30 31 28 25 26 27 25 24 24 25 27 27 27 28 28 28 27 26 25 24 24 24 24 24 24 24 25 24 24 24
21 20 19 18 18 18 19 19 18 19 21 21 23 24 24 22 21 23 26 29 32 35 36 34 32 31 30 28 25 24 25 27 30 33 35 35 36 37 37 38 40 41 40 39 39 38 37 37 35 34 35 33 30 31 30 27 27 28 28 27 25 24 23 24 24 25 26 27 27 28 27 27 26 25 24 24 24 24 24 24 24 24 24 24 24
21 20 19 18 17 17 17 17 18 18 20 21 22 22 22 21 21 22 25 27 30 34 35 34 32 29 25 21 18 18 20 22 24 27 31 34 35 37 39 41 42 42 43 42 39 37 37 37 36 34 34 33 31 32 30 25 25 29 30 27 25 23 22 23 23 23 25 24 24 24 25 25 25 25 24 25 25 24 24 23 23 23 24 24 24
21 20 18 17 17 17 17 18 19 19 19 19 19 20 20 20 20 21 24 26 28 32 35 34 33 30 26 21 15 14 17 20 22 24 27 29 32 34 35 38 42 44 45 45 43 41 39 39 38 36 34 33 32 33 31 28 29 31 29 27 26 24 23 24 24 23 23 22 21 22 24 25 25 25 24 25 25 24 24 23 22 22 23 23 23
19 19 18 17 17 18 18 19 20 21 19 17 16 17 18 19 19 20 22 25 26 30 34 34 34 33 31 28 22 17 15 16 19 23 27 30 31 33 34 34 37 41 44 45 46 45 43 41 40 39 37 35 33 33 32 31 32 31 28 26 26 25 25 25 23 21 20 21 21 22 24 24 24 25 24 24 24 24 23 23 22 21 22 22 22
17 18 18 17 18 18 19 19 20 21 19 15 14 16 17 18 18 18 20 23 25 28 31 32 33 33 32 29 26 23 21 21 21 20 24 31 33 35 36 36 37 39 42 45 46 46 46 44 42 41 40 38 36 33 31 30 30 29 28 26 25 24 23 21 20 19 21 22 22 22 24 23 22 23 23 22 22 22 22 21 21 21 21 21 21
16 17 18 18 18 19 19 19 20 22 20 15 14 14 15 17 18 19 20 22 23 25 27 28 30 31 32 32 29 27 26 25 26 25 21 24 32 34 35 37 38 40 42 44 44 45 46 46 46 45 43 40 37 35 31 27 26 25 24 24 24 23 21 19 20 20 20 22 23 24 23 21 19 21 22 20 20 20 20 20 20 19 20 20 19
17 18 19 19 19 19 20 19 20 22 20 15 14 14 15 17 19 20 21 22 22 22 24 26 28 30 33 33 31 28 27 26 26 27 25 20 23 30 34 38 41 42 43 43 43 42 43 45 47 47 45 42 40 38 34 30 27 25 24 24 25 24 22 22 23 21 19 20 23 24 23 20 19 20 20 18 19 20 19 20 19 18 18 18 17
19 19 19 19 18 18 19 19 19 21 21 16 14 15 16 18 20 21 22 23 22 22 22 24 26 28 31 32 31 28 27 26 25 25 26 22 16 20 29 35 40 43 43 42 42 42 41 43 45 46 46 45 43 41 37 33 29 27 28 27 25 25 26 26 25 22 19 20 22 23 22 22 20 20 18 16 16 19 20 19 18 17 17 17 16
18 18 18 18 18 17 18 18 18 20 22 17 13 14 17 18 20 21 21 22 23 23 22 23 24 26 28 30 29 29 28 27 25 24 25 24 19 16 18 24 33 39 41 40 40 42 42 42 43 45 46 45 44 42 38 34 31 29 29 29 26 26 27 27 26 23 20 20 23 23 23 23 21 20 20 17 14 16 20 20 18 16 16 16 16
Wind_Direction
266 267 266 266 267 267 265 262 260 259 260 263 266 268 269 267 266 266 267 271 272 275 277 272 263 259 260 259 258 260 262 260 255 251 250 250 250 251 251 252 254 256 253 243 235 230 231 238 232 216 210 214 218 222 226 230 231 230 230 228 228 228 226 226 227 229 229 232 236 241 245 246 248 251 254 262 272 284 289 294 297 299 302 304 308
271 271 270 269 269 268 267 265 263 261 260 264 266 268 269 266 263 264 265 267 268 269 270 271 267 262 260 259 259 259 260 258 255 252 250 251 251 251 254 255 252 251 250 247 240 233 229 228 231 226 219 218 221 225 228 229 229 229 232 233 234 235 236 235 236 238 239 241 242 246 251 253 254 256 258 264 273 281 285 288 290 295 299 302 305
275 276 276 276 274 272 270 269 267 265 263 265 267 267 266 264 261 260 261 260 264 265 266 268 267 265 262 260 260 261 262 259 255 252 250 251 252 252 254 255 255 252 248 245 242 238 231 226 228 229 226 222 222 226 231 232 232 231 233 235 238 240 241 242 243 243 245 247 248 250 253 255 258 259 261 264 271 276 279 280 282 289 293 297 300
279 280 280 281 279 276 273 271 270 268 267 266 266 266 265 263 259 256 256 258 263 265 265 266 265 266 264 262 261 261 263 262 259 255 252 251 251 251 252 253 254 255 251 246 242 241 237 231 227 227 228 227 225 225 230 234 236 237 237 239 241 243 245 246 247 247 246 248 251 253 254 256 259 260 262 263 266 269 270 272 274 279 283 283 286
277 280 281 281 280 279 276 274 274 273 271 269 267 265 263 262 260 257 255 259 264 265 263 262 263 264 264 263 262 261 261 261 260 256 254 253 253 253 251 251 252 253 253 249 245 242 241 238 233 229 228 228 229 228 229 233 237 239 241 242 243 246 249 250 251 252 251 252 253 255 257 258 261 263 264 264 265 265 264 265 266 267 270 270 273
273 275 275 277 278 278 277 278 278 275 272 270 267 264 262 261 260 260 259 260 262 261 259 258 258 259 260 259 258 259 259 259 258 256 255 256 257 256 253 251 250 251 253 254 250 243 240 241 238 234 230 229 230 230 231 234 237 240 242 244 245 247 250 253 254 256 257 258 258 259 261 263 264 265 266 266 264 263 262 262 262 262 263 265 269
272 272 272 272 273 274 276 278 278 277 273 269 267 265 264 261 258 259 260 260 260 259 257 255 255 255 256 257 257 257 258 257 256 255 256 258 260 258 256 252 249 249 251 254 253 244 238 238 240 238 233 230 230 231 233 235 238 240 242 244 245 247 249 252 254 256 258 260 262 262 263 264 265 266 267 266 264 262 262 261 261 261 261 263 267
275 274 275 273 272 273 276 278 278 276 272 268 265 264 264 263 260 258 257 259 260 260 258 255 253 253 254 256 257 258 258 258 257 256 256 257 259 258 255 253 251 250 250 252 253 246 238 235 238 240 237 233 231 231 232 234 236 238 241 243 245 247 249 251 253 255 257 258 262 263 263 263 263 265 265 265 264 263 262 261 262 262 263 265 268
279 274 276 277 276 277 279 281 281 279 277 271 265 262 262 264 262 259 257 257 259 261 259 255 252 251 251 254 257 259 258 257 256 256 256 257 258 257 254 254 254 253 251 251 251 247 242 237 236 238 238 236 233 232 231 232 234 236 239 241 244 246 249 252 254 255 257 258 260 262 263 263 263 264 265 266 266 266 265 263 263 264 266 268 270
281 279 279 279 280 281 280 280 279 279 280 278 271 265 261 261 262 261 258 256 256 259 259 256 255 254 252 252 256 259 259 257 255 253 255 257 258 256 253 253 255 256 253 250 249 247 245 241 237 236 237 237 235 233 232 231 233 235 238 240 243 245 247 250 253 255 257 258 260 262 264 265 266 266 267 269 269 269 269 267 267 266 267 268 270
282 282 281 279 281 284 281 278 276 275 275 276 275 269 263 260 260 261 260 257 255 255 257 256 255 255 254 252 252 256 258 257 255 252 251 254 256 256 254 253 255 257 255 250 248 248 245 243 240 238 238 238 238 237 236 234 234 235 238 240 243 245 246 248 250 254 255 256 259 260 262 263 265 266 266 267 268 269 269 269 269 269 270 270 270
284 283 281 281 283 284 282 279 276 273 272 272 270 269 267 263 260 261 262 261 258 255 255 255 254 255 256 256 255 255 258 258 257 253 251 251 253 254 254 254 254 255 256 253 250 249 247 244 242 241 241 240 240 239 238 238 238 239 240 241 244 246 247 248 251 252 254 256 258 260 261 262 262 263 264 265 266 267 267 268 268 269 270 271 270
285 283 281 282 283 283 282 280 278 273 271 270 266 264 265 265 262 259 258 259 260 259 258 256 255 255 257 260 262 260 259 260 260 257 253 252 252 253 253 254 255 255 256 255 253 251 249 247 245 244 243 241 242 241 240 240 241 241 241 241 243 247 248 250 252 252 253 255 258 261 262 262 262 262 263 264 264 266 266 267 267 267 267 268 268
284 282 280 279 280 281 280 280 279 275 272 271 269 266 265 265 263 260 257 255 257 260 260 257 254 255 258 263 267 267 264 262 261 258 255 254 253 254 254 255 256 257 257 257 256 254 252 250 249 248 247 244 243 242 242 242 244 245 244 243 243 245 248 249 251 252 253 255 258 261 263 263 264 263 263 263 263 265 266 266 267 267 267 266 267
283 283 282 281 280 280 280 279 278 276 274 273 271 269 266 263 260 260 258 254 253 254 257 256 255 256 255 258 264 271 271 266 262 259 256 256 255 255 256 257 258 258 257 257 257 255 254 252 251 251 252 250 248 246 246 247 247 249 249 248 245 244 245 247 249 251 252 254 256 259 261 262 262 262 262 262 262 263 264 265 266 267 266 266 267
284 284 282 281 280 279 279 279 278 276 274 273 270 266 264 262 262 261 257 253 251 250 251 252 252 251 247 250 258 262 263 264 266 264 260 259 257 257 258 260 261 260 257 256 257 257 256 255 253 253 254 254 253 251 251 251 252 252 251 250 248 244 243 244 247 251 252 253 255 257 259 260 260 260 259 259 259 259 260 261 262 264 265 265 266
287 285 283 280 279 277 277 276 276 275 274 274 272 267 263 261 264 262 256 255 254 251 250 250 250 250 247 249 250 249 253 256 264 270 267 263 259 259 259 261 262 260 257 255 256 257 257 257 256 256 256 256 256 255 255 255 255 254 252 249 248 246 244 246 249 252 253 253 255 256 258 259 260 260 260 259 259 259 258 258 258 259 260 262 263
290 287 284 282 280 278 277 275 275 276 277 278 276 272 265 260 260 259 257 259 261 255 250 250 253 254 253 253 253 251 253 253 254 266 271 266 261 259 259 261 261 260 257 256 256 257 257 256 256 256 256 256 256 256 257 257 256 255 253 250 249 248 248 249 251 252 253 253 254 255 257 259 260 260 260 260 261 260 259 258 258 258 258 259 260
291 287 284 283 283 280 278 277 276 277 280 281 279 276 271 266 264 263 261 262 262 256 250 250 254 257 258 258 257 256 255 252 252 259 268 269 267 265 263 262 261 259 258 257 256 256 256 255 254 255 255 255 256 257 258 259 259 258 256 253 251 251 250 250 251 250 250 251 252 255 257 259 261 261 260 260 260 261 261 260 260 260 260 260 260
298 294 289 286 284 281 277 277 278 280 282 283 283 281 279 276 272 269 267 263 259 254 252 251 252 258 262 260 258 257 255 253 253 254 258 265 269 269 268 266 261 257 256 257 256 256 256 255 254 254 255 255 255 256 257 257 258 259 258 256 254 253 252 251 250 250 250 250 252 254 257 259 261 262 261 260 260 261 262 262 261 261 261 261 261
304 301 297 291 285 279 275 276 280 283 284 284 286 285 282 279 275 271 270 267 261 256 254 252 254 258 258 258 259 259 257 255 254 253 253 258 263 266 270 270 264 260 257 256 257 257 258 258 257 256 256 256 256 256 256 256 256 256 256 256 255 254 253 252 251 251 253 253 254 256 258 259 261 261 261 261 261 261 261 262 262 262 262 262 262
311 308 303 295 286 279 277 280 284 285 283 282 285 286 282 280 278 274 271 269 263 257 255 255 258 258 253 255 259 256 253 252 249 249 248 251 258 262 264 263 263 264 264 264 263 261 259 260 260 258 257 257 257 257 257 257 256 255 254 254 255 256 255 253 251 252 253 255 256 257 259 260 260 259 259 259 261 261 261 261 261 262 262 264 264
323 320 312 300 291 287 286 288 288 285 282 279 281 285 283 279 279 276 272 270 264 258 257 257 257 258 255 255 256 252 248 246 242 245 246 246 254 259 261 261 261 266 271 273 271 265 260 259 259 258 256 255 255 257 258 258 259 258 257 256 256 256 256 254 252 252 253 254 256 258 260 261 260 258 257 257 258 259 259 259 260 261 262 263 264
328 325 318 307 299 297 297 298 295 291 289 288 287 289 285 279 278 277 275 273 269 261 257 257 256 257 256 255 254 251 249 245 242 246 250 252 257 260 262 264 266 269 272 274 273 267 259 256 256 256 255 255 255 257 258 258 259 260 260 259 257 256 255 253 252 251 251 253 255 258 260 260 260 258 255 254 255 256 257 258 259 259 260 261 261
327 324 320 313 307 304 304 303 303 300 296 297 298 296 292 285 278 272 268 268 271 266 256 255 256 255 255 254 254 255 254 246 241 247 255 257 260 262 263 263 265 267 270 271 271 268 261 256 255 256 255 255 255 257 258 257 258 259 260 260 259 257 255 252 251 251 251 253 255 257 258 258 259 258 255 254 254 254 256 257 257 258 259 259 259
325 321 318 315 312 310 308 306 306 304 301 299 298 297 294 290 284 277 270 267 270 270 261 258 259 257 257 257 257 258 258 253 251 257 260 257 258 260 261 262 261 262 264 266 268 267 264 259 256 255 255 254 254 255 256 256 257 258 258 259 260 259 256 252 251 251 252 253 254 254 255 258 259 259 257 256 255 255 256 257 257 257 257 258 257
325 320 316 314 313 312 311 309 308 306 304 301 297 295 292 287 284 282 278 273 273 272 268 266 266 263 261 261 262 261 260 259 260 262 261 258 257 257 259 261 261 261 261 262 263 263 264 263 260 257 255 254 254 252 253 254 255 256 255 256 259 258 256 253 251 251 252 252 253 254 257 260 261 260 258 257 257 257 257 258 259 259 258 258 258
330 327 321 316 315 314 313 312 310 309 307 304 301 298 294 289 285 283 279 275 274 275 274 272 270 268 265 265 265 264 262 262 261 260 260 259 257 256 256 258 259 260 261 260 260 261 262 262 261 260 257 257 256 251 250 252 253 253 253 253 256 257 256 255 254 254 254 254 254 256 259 260 260 258 257 257 257 258 259 260 261 261 261 260 260
329 330 327 322 319 317 316 316 314 312 310 307 306 302 298 295 291 287 283 278 275 275 273 271 269 268 268 267 267 265 263 263 262 260 260 260 258 257 256 255 256 256 257 257 258 257 257 256 258 262 263 261 257 251 248 250 251 250 249 249 252 255 255 255 255 255 254 253 253 254 255 257 258 258 259 259 260 261 262 263 263 263 263 262 261
322 324 324 323 322 320 319 318 315 313 311 309 308 306 303 300 296 292 289 286 282 278 274 272 271 269 267 266 266 264 262 264 263 262 262 259 257 256 255 255 255 253 252 254 256 256 254 255 258 262 265 264 259 250 247 249 250 245 241 243 247 251 254 253 251 250 249 248 248 250 253 256 258 260 262 263 264 265 265 265 265 264 263 262 260
318 319 319 320 322 322 320 317 314 311 308 308 308 308 307 305 303 299 295 291 287 283 279 276 274 272 268 266 264 263 263 264 262 260 261 259 255 254 255 256 255 254 252 251 255 256 253 253 257 260 263 264 261 250 246 246 244 238 236 238 244 248 249 248 246 244 243 244 246 250 254 257 260 262 264 265 266 266 266 266 266 265 263 261 258
318 318 317 318 319 320 318 315 313 311 309 310 310 310 309 308 306 303 299 294 290 286 281 277 274 271 268 265 264 264 263 263 262 259 257 257 256 253 254 254 253 255 253 248 252 255 254 252 254 258 261 262 259 251 245 241 238 239 238 237 239 243 242 242 243 242 243 244 247 251 254 257 260 262 265 266 267 267 268 268 267 267 265 262 259
319 317 315 315 314 315 316 315 314 313 312 312 312 313 313 312 310 306 302 299 296 291 285 279 274 270 268 265 263 262 260 258 259 256 251 252 254 251 250 251 250 251 249 245 249 254 255 252 251 254 256 257 256 250 244 241 239 240 242 238 239 244 242 241 241 241 243 244 247 250 252 256 259 263 266 267 268 268 268 269 270 269 268 266 263
322 317 311 310 311 314 317 318 316 314 312 313 316 320 320 319 317 311 307 304 300 296 290 284 278 273 271 268 265 262 258 253 252 250 246 249 251 248 246 248 249 247 244 243 246 251 253 252 250 251 252 254 255 249 244 243 243 244 246 246 249 252 247 243 241 240 241 243 246 249 253 257 262 266 268 269 269 269 269 270 269 269 268 267 265
325 318 309 305 307 311 318 320 317 314 314 316 320 325 326 324 321 318 317 313 307 301 295 288 283 278 273 270 268 265 259 252 248 246 244 246 247 245 244 246 246 245 242 242 243 246 249 251 250 249 249 252 255 251 246 245 246 248 249 249 253 256 252 246 243 244 244 244 246 251 256 261 265 269 271 271 271 271 272 272 272 270 268 267 265
326 323 315 306 303 307 314 319 317 316 317 319 323 327 327 325 322 321 323 320 315 310 303 295 288 283 277 272 270 266 260 253 247 245 246 245 244 243 242 242 243 243 242 242 243 245 247 249 249 248 248 249 252 254 251 247 246 247 247 249 252 255 255 250 246 246 247 245 246 252 257 262 267 270 273 273 273 272 272 273 273 273 271 268 267
322 323 321 315 310 306 309 317 321 324 325 324 327 329 327 325 321 321 323 322 320 318 314 307 297 288 282 277 271 266 262 257 249 245 248 247 244 242 241 241 241 241 241 241 242 244 245 247 249 249 247 248 250 252 251 250 249 248 248 249 250 251 255 253 248 247 247 245 246 250 256 261 265 269 272 274 274 273 272 273 273 272 271 269 268
317 319 321 321 318 312 311 315 319 325 330 330 329 328 326 323 320 320 323 325 324 324 322 317 308 294 282 277 272 267 263 259 251 247 249 248 244 242 240 239 239 240 240 241 240 241 244 246 248 248 246 247 249 250 250 252 251 250 248 247 248 249 251 251 248 246 245 245 246 249 254 259 263 267 271 273 274 273 272 271 271 271 271 270 270
315 316 318 319 320 318 317 316 315 316 324 331 330 327 326 322 318 319 323 325 326 326 324 320 315 302 285 273 268 264 261 257 253 251 250 247 244 242 240 237 237 238 239 240 239 238 241 244 246 247 245 245 247 250 253 254 251 248 246 244 245 246 248 249 247 247 247 246 246 248 251 256 260 266 271 274 275 274 271 269 268 269 270 272 272
315 313 314 316 317 318 317 316 313 310 316 328 330 328 326 323 320 321 325 326 326 326 326 322 316 308 295 280 267 262 259 255 254 253 250 248 245 244 241 237 237 238 238 238 239 239 240 243 245 245 241 241 245 249 252 250 245 242 240 238 239 242 246 250 251 250 249 249 247 247 248 253 258 266 274 276 275 273 270 266 266 267 270 272 272
318 313 311 312 315 316 316 316 313 310 312 322 327 327 328 326 323 325 330 330 328 330 331 326 316 306 299 290 275 265 258 254 253 252 250 248 245 244 243 240 237 237 236 237 239 240 240 241 243 242 238 238 241 245 245 242 239 238 236 235 236 238 242 250 253 251 249 250 250 249 248 251 257 267 274 277 276 272 267 264 265 267 269 270 270
320 315 309 308 312 315 317 318 316 314 313 316 322 326 328 328 325 328 333 333 334 337 337 331 322 313 306 297 283 270 260 254 253 252 250 248 245 244 245 242 238 238 237 238 240 241 240 240 240 239 238 237 237 239 240 238 238 239 239 238 239 239 242 248 253 252 251 251 252 252 250 250 256 267 275 279 277 271 265 265 266 267 268 267 266
319 317 311 308 311 314 316 319 321 320 317 316 320 324 328 328 326 330 334 334 338 344 344 339 333 325 316 306 292 277 267 259 255 254 252 250 247 246 245 243 241 240 239 240 241 241 240 240 239 237 235 234 233 236 238 238 238 240 243 244 241 239 242 246 251 253 251 251 252 253 250 249 255 266 275 279 276 269 265 266 268 267 265 263 263
317 317 313 310 312 315 317 320 324 323 319 318 320 322 325 327 327 332 337 337 341 350 351 347 344 339 330 319 300 283 277 272 267 263 259 254 250 248 245 243 242 241 241 241 240 239 239 239 237 235 233 232 231 234 237 234 235 241 247 248 241 236 240 243 245 248 251 252 252 250 248 249 256 265 274 278 275 269 266 267 267 266 264 262 262
315 316 315 313 313 314 316 322 326 324 320 318 318 318 322 327 328 333 340 339 343 353 356 353 353 354 355 355 339 307 292 284 276 271 266 259 253 251 248 244 241 241 241 241 239 238 238 238 237 235 233 230 229 233 236 235 238 243 246 245 238 233 237 242 243 247 252 252 249 248 248 251 257 264 272 276 272 267 266 267 267 265 263 261 260
314 316 316 314 313 314 317 323 327 326 322 316 313 314 322 329 331 334 339 340 345 354 357 358 360 360 360 4 2 348 333 316 296 276 263 258 254 251 249 246 242 240 240 240 239 238 238 238 239 238 236 232 230 233 237 240 243 245 244 242 239 238 241 246 248 249 250 248 244 244 249 253 259 267 272 271 268 266 266 267 265 262 260 260 257
316 316 317 315 313 314 318 323 326 326 324 314 307 313 325 335 338 337 339 342 347 353 355 358 2 2 360 1 0 356 355 352 341 313 276 259 253 249 247 247 246 243 242 241 240 239 239 238 237 237 237 235 234 235 238 241 244 246 247 247 248 249 249 249 247 242 242 243 239 240 248 254 258 266 271 267 263 263 264 264 261 258 258 257 252
317 316 316 315 314 314 318 322 324 325 325 314 304 314 331 340 343 343 343 345 349 352 354 356 358 360 2 3 360 357 357 355 352 343 316 274 255 250 248 248 249 248 246 245 243 242 240 239 237 236 236 237 237 236 235 236 237 241 244 245 243 243 242 239 237 235 237 242 241 240 247 253 256 262 265 262 259 261 261 260 258 256 256 253 246
321 319 317 315 314 315 317 320 321 323 325 317 306 315 330 337 341 345 346 347 349 349 351 354 354 356 2 4 1 358 357 357 354 350 341 312 270 254 250 250 249 248 248 248 247 245 242 239 238 235 234 237 240 239 237 234 233 234 236 235 232 231 231 229 229 231 232 239 243 244 246 250 253 257 258 256 257 258 257 257 257 255 254 250 242
324 323 320 318 317 318 318 319 320 321 324 319 307 313 325 330 334 340 342 345 349 347 347 351 353 354 359 3 4 1 358 359 357 353 349 341 309 270 258 253 248 246 246 245 246 246 243 239 237 235 232 234 239 242 241 237 235 233 232 231 229 228 228 227 228 230 233 238 244 245 245 247 250 251 249 249 252 253 252 254 255 253 248 243 240
323 324 323 321 320 321 322 321 320 320 324 323 312 312 322 326 328 332 335 339 345 347 346 347 349 351 354 1 7 8 6 3 1 359 357 353 342 314 282 259 247 243 243 241 241 241 241 238 235 232 230 230 233 237 238 237 236 232 229 227 226 226 226 226 226 228 229 235 242 245 245 245 245 243 240 237 241 249 251 249 248 245 238 235 238
Height
1587 1587 1587 1587 1587 1587 1587 1588 1588 1588 1588 1588 1587 1587 1587 1587 1588 1589 1589 1589 1589 1588 1588 1587 1587 1587 1587 1587 1587 1587 1588 1588 1589 1589 1590 1590 1591 1591 1591 1592 1591 1591 1592 1592 1592 1593 1593 1594 1594 1594 1594 1595 1596 1596 1597 1598 1599 1600 1600 1601 1601 1601 1602 1602 1602 1603 1603 1603 1604 1604 1604 1604 1605 1605 1605 1605 1606 1606 1606 1607 1607 1607 1607 1608 1608
1586 1586 1586 1585 1586 1586 1586 1586 1586 1587 1587 1587 1587 1586 1586 1586 1586 1587 1587 1587 1587 1587 1587 1587 1586 1586 1586 1586 1586 1586 1586 1587 1587 1587 1588 1589 1589 1590 1590 1590 1591 1590 1591 1591 1591 1592 1592 1593 1593 1593 1593 1594 1595 1596 1596 1597 1598 1599 1599 1600 1600 1601 1601 1601 1602 1602 1602 1603 1603 1603 1603 1604 1604 1604 1604 1605 1605 1605 1606 1606 1606 1606 1606 1607 1607
1585 1585 1584 1584 1584 1584 1584 1584 1584 1585 1585 1585 1586 1586 1585 1585 1585 1585 1586 1586 1586 1586 1586 1586 1585 1585 1585 1585 1585 1585 1585 1585 1585 1586 1586 1587 1587 1588 1588 1589 1589 1589 1589 1590 1590 1591 1591 1592 1592 1593 1593 1593 1594 1595 1595 1596 1597 1598 1598 1599 1599 1600 1600 1601 1601 1601 1602 1602 1602 1602 1602 1603 1603 1603 1604 1604 1604 1604 1605 1605 1605 1605 1605 1606 1606
1584 1583 1583 1583 1583 1583 1583 1583 1583 1583 1583 1583 1584 1584 1584 1584 1584 1584 1584 1585 1585 1585 1585 1584 1584 1584 1584 1584 1584 1584 1584 1584 1584 1584 1585 1585 1585 1586 1587 1587 1588 1588 1588 1588 1589 1589 1590 1590 1591 1591 1592 1592 1593 1593 1594 1595 1596 1597 1597 1598 1598 1599 1599 1600 1600 1600 1601 1601 1601 1601 1602 1602 1602 1602 1603 1603 1603 1603 1604 1604 1604 1604 1604 1604 1605
1582 1582 1582 1582 1581 1581 1581 1581 1581 1581 1581 1581 1582 1582 1582 1582 1582 1582 1583 1583 1583 1583 1583 1583 1583 1583 1583 1583 1583 1583 1583 1582 1583 1583 1583 1583 1584 1584 1585 1585 1586 1586 1586 1587 1587 1587 1588 1589 1589 1590 1590 1591 1591 1592 1593 1594 1594 1595 1596 1596 1597 1597 1598 1598 1599 1599 1600 1600 1600 1600 1600 1601 1601 1601 1602 1602 1602 1602 1603 1603 1603 1603 1603 1603 1604
1580 1580 1580 1580 1579 1579 1579 1579 1579 1580 1580 1579 1580 1580 1580 1581 1581 1581 1581 1581 1581 1581 1581 1581 1582 1582 1581 1581 1581 1581 1581 1581 1581 1581 1581 1582 1582 1582 1583 1583 1584 1584 1584 1585 1585 1586 1586 1587 1588 1588 1589 1589 1590 1590 1591 1592 1593 1593 1594 1594 1595 1596 1596 1597 1597 1598 1598 1599 1599 1599 1599 1599 1600 1600 1600 1601 1601 1601 1601 1601 1602 1602 1602 1602 1602
1578 1577 1577 1577 1577 1576 1576 1576 1577 1578 1578 1578 1578 1578 1578 1579 1579 1579 1579 1579 1579 1579 1579 1579 1580 1580 1580 1580 1580 1579 1579 1579 1579 1580 1580 1580 1580 1580 1580 1581 1582 1582 1583 1583 1583 1584 1584 1585 1586 1586 1587 1587 1588 1589 1589 1590 1591 1591 1592 1593 1593 1594 1595 1595 1596 1596 1597 1597 1597 1597 1598 1598 1598 1599 1599 1599 1599 1600 1600 1600 1600 1600 1601 1601 1601
1576 1575 1575 1575 1574 1573 1573 1573 1574 1575 1576 1576 1576 1576 1576 1576 1577 1577 1577 1577 1577 1577 1577 1577 1577 1578 1578 1578 1578 1578 1578 1578 1578 1578 1578 1578 1578 1578 1578 1579 1579 1580 1581 1581 1581 1582 1582 1583 1584 1584 1585 1586 1586 1587 1587 1588 1589 1589 1590 1591 1591 1592 1593 1593 1594 1595 1595 1595 1596 1596 1596 1596 1597 1597 1597 1598 1598 1598 1598 1598 1599 1599 1599 1599 1600
1573 1573 1572 1571 1571 1571 1571 1571 1571 1572 1573 1573 1574 1574 1574 1574 1575 1575 1575 1575 1575 1575 1574 1575 1575 1575 1576 1576 1576 1576 1576 1576 1576 1576 1576 1576 1576 1576 1576 1577 1577 1578 1579 1579 1580 1580 1580 1581 1582 1582 1583 1584 1584 1585 1585 1586 1587 1587 1588 1589 1589 1590 1591 1592 1592 1593 1593 1594 1594 1594 1595 1595 1595 1595 1596 1596 1596 1597 1597 1597 1597 1597 1598 1598 1598
1569 1570 1569 1568 1568 1568 1568 1568 1569 1569 1570 1570 1570 1571 1571 1572 1572 1573 1573 1573 1573 1573 1572 1573 1573 1573 1573 1574 1574 1574 1574 1574 1574 1574 1574 1574 1574 1574 1575 1575 1575 1576 1576 1577 1578 1578 1579 1579 1579 1580 1581 1581 1582 1583 1583 1584 1584 1585 1586 1586 1587 1588 1589 1590 1590 1591 1591 1592 1592 1593 1593 1593 1594 1594 1594 1594 1595 1595 1595 1595 1596 1596 1596 1596 1597
1565 1565 1565 1565 1564 1564 1565 1565 1565 1566 1566 1566 1566 1567 1568 1569 1570 1570 1571 1570 1570 1570 1570 1570 1571 1571 1571 1571 1571 1571 1572 1572 1572 1572 1572 1572 1572 1572 1573 1573 1573 1573 1574 1575 1575 1576 1576 1577 1577 1578 1578 1579 1580 1580 1581 1582 1582 1583 1583 1584 1585 1586 1587 1587 1588 1589 1589 1590 1591 1591 1591 1592 1592 1592 1593 1593 1593 1593 1594 1594 1594 1594 1594 1595 1595
1562 1562 1562 1562 1561 1561 1561 1561 1562 1562 1562 1562 1562 1562 1563 1565 1567 1567 1568 1568 1568 1568 1568 1568 1568 1568 1568 1568 1568 1568 1569 1569 1569 1569 1569 1570 1570 1570 1570 1571 1571 1571 1572 1572 1573 1574 1574 1575 1575 1576 1576 1577 1577 1578 1579 1579 1580 1581 1581 1582 1583 1583 1584 1585 1586 1587 1587 1588 1589 1589 1589 1590 1590 1591 1591 1591 1591 1592 1592 1592 1592 1592 1593 1593 1593
1560 1559 1559 1559 1559 1558 1558 1558 1558 1558 1558 1557 1557 1558 1559 1561 1563 1563 1563 1564 1564 1565 1565 1565 1565 1565 1565 1565 1565 1565 1566 1566 1566 1566 1567 1567 1567 1567 1568 1568 1568 1569 1569 1570 1570 1571 1572 1573 1573 1574 1574 1575 1575 1576 1576 1577 1577 1578 1579 1579 1580 1581 1582 1583 1584 1584 1585 1586 1586 1587 1587 1588 1588 1589 1589 1589 1589 1590 1590 1590 1590 1590 1591 1591 1591
1558 1557 1557 1557 1556 1556 1555 1555 1555 1554 1553 1553 1553 1554 1555 1556 1558 1558 1560 1561 1561 1562 1562 1563 1562 1562 1563 1563 1563 1562 1562 1562 1562 1563 1564 1564 1564 1564 1565 1565 1566 1566 1567 1567 1568 1568 1569 1570 1570 1571 1572 1572 1573 1574 1574 1575 1575 1575 1576 1577 1578 1579 1579 1580 1581 1582 1583 1583 1584 1584 1585 1585 1586 1586 1587 1587 1587 1588 1588 1588 1588 1589 1589 1589 1589
1556 1555 1554 1554 1553 1553 1552 1552 1551 1550 1549 1549 1550 1550 1551 1552 1553 1554 1555 1556 1557 1558 1558 1559 1559 1560 1561 1561 1560 1560 1559 1558 1558 1559 1560 1561 1561 1561 1561 1562 1562 1563 1563 1564 1564 1565 1566 1567 1567 1568 1569 1570 1571 1571 1572 1572 1572 1573 1574 1574 1575 1576 1577 1578 1578 1579 1580 1580 1581 1582 1582 1583 1583 1584 1584 1585 1585 1585 1586 1586 1586 1587 1587 1587 1588
1553 1552 1551 1551 1550 1550 1549 1549 1549 1547 1546 1545 1545 1546 1547 1548 1549 1549 1550 1551 1552 1553 1554 1554 1556 1557 1559 1558 1558 1558 1556 1555 1555 1555 1557 1557 1557 1558 1558 1558 1559 1560 1560 1560 1561 1562 1563 1564 1564 1565 1566 1567 1568 1569 1569 1569 1570 1570 1571 1572 1572 1573 1574 1575 1576 1577 1577 1578 1578 1579 1580 1580 1580 1581 1582 1582 1582 1583 1583 1583 1584 1584 1585 1585 1585
1550 1549 1549 1548 1547 1547 1546 1546 1545 1544 1542 1542 1542 1542 1543 1544 1545 1545 1546 1547 1548 1549 1549 1550 1551 1553 1556 1555 1555 1554 1552 1553 1554 1553 1553 1554 1554 1555 1555 1555 1555 1556 1556 1557 1558 1559 1559 1560 1561 1562 1562 1563 1564 1565 1566 1567 1567 1567 1568 1568 1569 1570 1571 1572 1573 1574 1575 1575 1576 1576 1577 1578 1578 1578 1579 1579 1580 1580 1580 1581 1581 1581 1582 1582 1583
1547 1546 1545 1545 1544 1543 1543 1542 1542 1541 1539 1539 1539 1539 1539 1540 1542 1542 1543 1545 1546 1547 1547 1546 1547 1549 1551 1551 1551 1551 1550 1551 1551 1551 1550 1551 1551 1552 1552 1552 1552 1552 1552 1553 1554 1555 1556 1557 1557 1558 1559 1560 1561 1562 1562 1563 1564 1564 1565 1565 1566 1567 1568 1569 1570 1571 1572 1572 1573 1574 1574 1575 1575 1576 1576 1576 1577 1577 1578 1578 1578 1579 1579 1579 1580
1544 1543 1542 1541 1541 1540 1539 1539 1539 1538 1537 1536 1536 1536 1536 1537 1538 1539 1540 1542 1543 1544 1544 1544 1545 1545 1546 1547 1547 1547 1548 1548 1548 1549 1549 1548 1548 1549 1549 1549 1549 1549 1549 1550 1551 1552 1552 1553 1553 1554 1555 1556 1557 1558 1559 1559 1560 1561 1561 1562 1563 1564 1565 1566 1567 1568 1569 1569 1570 1571 1571 1572 1572 1573 1573 1573 1574 1574 1575 1575 1575 1576 1576 1577 1577
1541 1540 1539 1538 1537 1537 1536 1536 1536 1535 1535 1534 1533 1533 1534 1534 1534 1534 1536 1537 1538 1539 1540 1541 1541 1541 1542 1543 1543 1543 1544 1545 1545 1547 1547 1546 1545 1546 1546 1546 1545 1545 1546 1547 1548 1549 1549 1549 1550 1551 1551 1552 1553 1554 1555 1556 1556 1557 1557 1558 1559 1560 1561 1562 1563 1564 1565 1566 1567 1567 1568 1569 1569 1570 1570 1570 1571 1571 1571 1572 1573 1573 1573 1574 1574
1538 1537 1536 1535 1534 1534 1534 1533 1533 1533 1533 1531 1531 1531 1532 1532 1531 1531 1532 1533 1533 1534 1535 1536 1537 1538 1539 1539 1539 1540 1541 1542 1543 1544 1545 1544 1543 1543 1543 1543 1542 1542 1542 1543 1545 1545 1546 1546 1546 1547 1548 1548 1549 1550 1551 1552 1552 1553 1553 1554 1555 1556 1557 1559 1560 1561 1562 1563 1563 1564 1565 1565 1566 1567 1567 1567 1568 1568 1568 1569 1569 1570 1570 1571 1571
1536 1534 1533 1532 1532 1532 1531 1532 1532 1531 1531 1530 1529 1529 1529 1529 1529 1529 1528 1528 1529 1529 1530 1532 1534 1535 1536 1536 1536 1538 1538 1539 1540 1541 1541 1541 1540 1540 1541 1541 1540 1539 1539 1540 1541 1542 1543 1543 1543 1544 1544 1544 1545 1546 1546 1547 1548 1549 1549 1550 1551 1552 1553 1554 1555 1557 1558 1559 1560 1561 1561 1562 1563 1563 1564 1564 1564 1565 1565 1566 1566 1567 1567 1568 1568
1535 1533 1532 1531 1530 1530 1530 1530 1530 1529 1529 1528 1528 1527 1526 1526 1526 1526 1526 1525 1525 1526 1527 1529 1531 1532 1533 1533 1533 1534 1535 1536 1538 1538 1538 1538 1537 1537 1537 1538 1537 1536 1536 1537 1538 1538 1539 1539 1540 1540 1540 1541 1542 1542 1543 1543 1544 1545 1545 1547 1547 1548 1549 1550 1551 1552 1554 1555 1556 1557 1557 1558 1559 1560 1560 1561 1561 1562 1562 1563 1563 1564 1564 1565 1565
1534 1532 1531 1530 1529 1529 1528 1528 1528 1527 1527 1526 1526 1525 1524 1524 1524 1524 1524 1523 1524 1525 1525 1526 1527 1528 1529 1529 1531 1532 1531 1532 1534 1535 1535 1534 1534 1534 1534 1535 1534 1533 1534 1534 1534 1535 1535 1535 1536 1536 1537 1537 1538 1539 1539 1540 1540 1541 1542 1543 1543 1544 1545 1546 1547 1548 1549 1551 1552 1553 1554 1554 1555 1555 1556 1557 1558 1558 1559 1559 1560 1560 1561 1561 1562
1533 1532 1531 1530 1528 1528 1527 1526 1526 1525 1525 1524 1524 1523 1523 1522 1522 1522 1523 1522 1522 1523 1523 1523 1524 1525 1525 1527 1528 1528 1528 1529 1530 1530 1531 1531 1531 1530 1530 1532 1531 1530 1531 1531 1531 1531 1531 1531 1532 1532 1533 1533 1534 1535 1536 1536 1536 1537 1539 1539 1539 1540 1541 1542 1543 1544 1545 1546 1548 1549 1549 1550 1551 1551 1552 1553 1554 1554 1555 1556 1556 1557 1557 1558 1558
1531 1530 1529 1528 1527 1526 1525 1525 1524 1524 1523 1523 1522 1522 1521 1521 1521 1521 1521 1521 1521 1521 1521 1520 1521 1522 1523 1524 1524 1524 1525 1525 1525 1525 1527 1528 1527 1527 1527 1528 1528 1527 1527 1528 1528 1527 1527 1528 1528 1529 1529 1530 1531 1531 1532 1533 1533 1534 1535 1536 1536 1536 1537 1538 1539 1540 1542 1543 1544 1545 1546 1546 1547 1548 1548 1549 1550 1551 1551 1552 1552 1553 1553 1554 1554
1530 1529 1528 1527 1526 1525 1524 1523 1522 1522 1521 1521 1520 1520 1519 1519 1518 1519 1519 1519 1519 1518 1519 1518 1519 1519 1520 1520 1520 1520 1520 1520 1520 1521 1523 1523 1523 1524 1524 1524 1524 1523 1524 1524 1524 1523 1523 1524 1524 1524 1525 1526 1527 1528 1529 1530 1530 1531 1532 1533 1532 1533 1533 1534 1536 1537 1538 1539 1540 1541 1542 1543 1543 1544 1545 1545 1546 1547 1547 1548 1548 1549 1549 1550 1550
1529 1528 1526 1525 1524 1524 1523 1522 1521 1520 1519 1518 1518 1517 1517 1516 1516 1516 1515 1516 1515 1515 1516 1515 1515 1515 1516 1516 1515 1515 1516 1516 1516 1517 1518 1519 1519 1520 1521 1521 1520 1520 1520 1520 1520 1519 1520 1520 1520 1520 1521 1523 1523 1525 1526 1526 1527 1528 1529 1529 1528 1529 1530 1531 1532 1533 1534 1535 1536 1537 1538 1539 1539 1540 1541 1541 1542 1543 1543 1544 1544 1545 1545 1546 1547
1528 1527 1525 1524 1523 1522 1522 1521 1520 1519 1518 1517 1516 1515 1514 1514 1513 1513 1512 1512 1512 1511 1511 1511 1511 1511 1511 1511 1510 1511 1512 1512 1512 1512 1513 1514 1515 1516 1516 1517 1517 1516 1516 1515 1515 1515 1516 1517 1517 1516 1517 1519 1520 1521 1523 1523 1524 1525 1525 1525 1525 1526 1527 1528 1529 1530 1531 1532 1533 1534 1534 1535 1536 1537 1537 1538 1538 1539 1540 1540 1540 1541 1541 1542 1542
1526 1525 1524 1523 1522 1521 1520 1520 1519 1518 1517 1515 1514 1513 1512 1511 1511 1510 1509 1509 1508 1508 1508 1507 1506 1506 1506 1506 1505 1506 1508 1508 1507 1507 1508 1509 1510 1511 1512 1513 1513 1512 1512 1512 1510 1511 1513 1513 1513 1513 1513 1515 1516 1517 1519 1520 1521 1522 1522 1522 1522 1523 1524 1525 1526 1526 1527 1528 1529 1530 1531 1532 1533 1533 1534 1534 1535 1535 1536 1536 1536 1537 1537 1538 1538
1525 1524 1523 1522 1521 1520 1519 1518 1517 1516 1515 1514 1513 1511 1510 1509 1508 1507 1506 1505 1504 1504 1504 1503 1502 1501 1501 1501 1500 1500 1502 1502 1501 1502 1502 1503 1504 1506 1507 1508 1508 1507 1508 1509 1506 1506 1509 1510 1510 1510 1510 1511 1513 1514 1515 1517 1518 1519 1519 1519 1519 1520 1521 1521 1522 1523 1524 1525 1526 1527 1528 1529 1530 1530 1531 1531 1531 1532 1532 1532 1533 1533 1533 1534 1534
1525 1523 1522 1520 1519 1519 1518 1517 1516 1514 1513 1512 1511 1510 1508 1507 1506 1505 1504 1502 1501 1500 1499 1499 1498 1497 1496 1496 1495 1495 1496 1496 1495 1496 1497 1497 1499 1500 1501 1502 1503 1503 1504 1505 1503 1502 1505 1507 1506 1507 1507 1507 1509 1510 1511 1513 1514 1516 1516 1516 1517 1517 1517 1518 1519 1520 1521 1522 1523 1524 1525 1526 1526 1527 1528 1528 1528 1528 1529 1529 1529 1530 1530 1530 1531
1524 1522 1521 1519 1518 1517 1516 1515 1514 1513 1512 1510 1509 1508 1506 1505 1504 1502 1501 1499 1497 1496 1495 1494 1494 1493 1491 1491 1490 1490 1491 1490 1489 1490 1492 1492 1494 1495 1496 1497 1498 1498 1499 1500 1499 1498 1500 1502 1503 1503 1504 1504 1505 1506 1508 1509 1511 1512 1513 1514 1514 1515 1515 1515 1516 1517 1518 1519 1520 1521 1522 1523 1524 1524 1525 1525 1525 1525 1526 1526 1526 1526 1527 1527 1528
1522 1521 1519 1518 1517 1516 1515 1514 1512 1511 1510 1509 1507 1506 1504 1503 1501 1499 1498 1496 1494 1493 1491 1489 1489 1488 1486 1485 1484 1485 1485 1485 1484 1485 1486 1487 1489 1490 1491 1491 1492 1493 1494 1495 1494 1494 1495 1497 1498 1499 1500 1501 1501 1502 1504 1506 1507 1508 1510 1511 1511 1512 1512 1513 1513 1514 1515 1516 1517 1518 1519 1520 1521 1521 1521 1522 1522 1522 1522 1523 1523 1523 1523 1524 1524
1521 1519 1518 1517 1515 1514 1513 1512 1511 1509 1508 1507 1506 1504 1503 1501 1499 1497 1495 1494 1491 1489 1487 1485 1484 1483 1482 1480 1478 1479 1479 1479 1479 1480 1481 1482 1483 1484 1485 1486 1487 1488 1489 1490 1490 1490 1491 1492 1494 1495 1496 1497 1497 1498 1500 1502 1504 1505 1506 1507 1508 1509 1509 1510 1510 1511 1512 1513 1514 1515 1516 1517 1517 1518 1518 1518 1519 1519 1519 1519 1520 1520 1520 1520 1520
1520 1518 1516 1515 1514 1513 1512 1511 1509 1508 1507 1505 1504 1503 1501 1499 1497 1495 1493 1490 1488 1486 1484 1481 1479 1478 1477 1475 1473 1473 1474 1473 1473 1474 1475 1476 1478 1478 1480 1481 1482 1483 1484 1485 1485 1486 1487 1488 1489 1491 1492 1493 1494 1495 1496 1498 1499 1501 1502 1503 1504 1505 1506 1507 1507 1508 1509 1510 1511 1512 1513 1513 1514 1514 1515 1515 1515 1515 1516 1516 1516 1516 1516 1517 1517
1519 1517 1515 1513 1512 1511 1510 1509 1508 1507 1505 1504 1503 1501 1499 1497 1494 1492 1490 1488 1485 1483 1480 1478 1475 1473 1471 1469 1467 1467 1467 1467 1468 1467 1468 1470 1471 1472 1474 1476 1477 1478 1479 1481 1481 1482 1483 1484 1485 1487 1488 1490 1490 1491 1492 1493 1495 1497 1498 1499 1500 1501 1502 1503 1504 1505 1506 1507 1508 1509 1509 1510 1511 1511 1511 1511 1511 1512 1512 1512 1512 1513 1513 1513 1513
1517 1516 1514 1512 1511 1509 1508 1507 1506 1505 1504 1503 1501 1499 1497 1494 1492 1490 1487 1485 1482 1479 1476 1473 1469 1467 1465 1463 1462 1461 1461 1461 1462 1462 1462 1463 1465 1466 1468 1470 1472 1473 1474 1475 1476 1477 1478 1479 1481 1482 1484 1485 1486 1487 1488 1489 1490 1492 1494 1495 1496 1497 1499 1500 1501 1502 1502 1503 1504 1505 1506 1507 1507 1508 1508 1508 1508 1508 1508 1508 1509 1509 1510 1510 1510
1515 1514 1512 1511 1509 1508 1507 1505 1504 1503 1502 1501 1499 1496 1494 1492 1490 1487 1485 1482 1479 1476 1472 1468 1464 1461 1459 1458 1457 1455 1455 1455 1455 1455 1457 1458 1459 1460 1462 1464 1466 1468 1469 1470 1472 1473 1474 1475 1476 1478 1480 1481 1482 1483 1484 1485 1487 1488 1490 1491 1492 1493 1495 1496 1497 1498 1499 1500 1501 1502 1502 1503 1503 1504 1504 1504 1504 1504 1504 1504 1505 1505 1506 1506 1507
1514 1512 1511 1509 1508 1506 1505 1504 1502 1501 1500 1498 1497 1494 1492 1490 1488 1485 1482 1479 1475 1472 1468 1463 1459 1455 1453 1452 1451 1449 1449 1449 1449 1450 1451 1452 1453 1455 1456 1458 1461 1462 1463 1465 1467 1468 1469 1470 1471 1473 1475 1476 1477 1479 1480 1482 1483 1483 1485 1487 1488 1490 1491 1493 1494 1495 1496 1496 1497 1498 1499 1499 1500 1500 1500 1500 1500 1500 1500 1501 1501 1502 1502 1503 1503
1512 1510 1509 1508 1506 1505 1503 1502 1500 1499 1498 1496 1495 1492 1490 1488 1486 1483 1480 1476 1473 1469 1464 1459 1454 1451 1448 1446 1445 1444 1443 1444 1444 1444 1446 1447 1449 1450 1451 1453 1456 1457 1458 1460 1461 1462 1464 1465 1466 1468 1470 1471 1472 1475 1476 1477 1478 1479 1481 1484 1485 1486 1488 1490 1490 1491 1492 1493 1493 1494 1495 1496 1496 1496 1496 1496 1496 1496 1497 1497 1497 1498 1499 1499 1499
1510 1508 1507 1506 1504 1503 1502 1500 1498 1497 1495 1494 1493 1491 1488 1486 1484 1481 1478 1474 1471 1466 1461 1455 1450 1447 1443 1441 1439 1438 1438 1438 1439 1439 1440 1442 1443 1444 1446 1448 1450 1451 1452 1454 1455 1457 1459 1459 1461 1463 1464 1465 1468 1470 1471 1472 1473 1475 1477 1479 1481 1483 1485 1486 1486 1487 1488 1489 1490 1490 1491 1492 1493 1493 1493 1493 1493 1493 1493 1493 1494 1495 1495 1495 1495
1508 1507 1505 1504 1503 1502 1500 1498 1497 1495 1493 1492 1490 1489 1486 1484 1482 1479 1476 1473 1469 1464 1458 1453 1447 1442 1438 1436 1434 1434 1434 1434 1434 1434 1435 1437 1438 1439 1440 1442 1444 1445 1446 1448 1449 1451 1453 1454 1456 1458 1459 1460 1463 1465 1467 1468 1469 1471 1473 1475 1477 1480 1481 1482 1483 1483 1484 1486 1486 1486 1487 1489 1489 1489 1489 1489 1489 1489 1489 1490 1491 1491 1491 1492 1492
1506 1505 1504 1503 1501 1500 1498 1497 1495 1493 1492 1490 1488 1486 1484 1482 1480 1477 1474 1471 1467 1462 1457 1451 1446 1441 1436 1433 1431 1431 1431 1431 1431 1431 1430 1431 1432 1433 1435 1436 1438 1439 1440 1442 1444 1446 1448 1449 1451 1452 1453 1456 1458 1460 1462 1464 1465 1466 1468 1471 1474 1476 1477 1478 1479 1480 1481 1482 1483 1483 1484 1485 1485 1485 1486 1486 1486 1486 1486 1487 1487 1488 1488 1488 1488
1504 1503 1502 1501 1500 1499 1497 1495 1493 1491 1490 1488 1486 1484 1482 1480 1478 1475 1473 1470 1466 1461 1456 1451 1446 1441 1436 1431 1429 1429 1429 1428 1428 1427 1427 1426 1427 1427 1429 1430 1431 1433 1434 1436 1438 1440 1442 1444 1445 1446 1448 1451 1452 1454 1457 1459 1460 1462 1465 1467 1469 1472 1473 1474 1476 1477 1477 1478 1479 1480 1480 1481 1481 1482 1482 1482 1482 1482 1483 1483 1484 1484 1484 1484 1485
1503 1502 1501 1499 1498 1497 1495 1493 1491 1489 1487 1486 1484 1482 1480 1479 1476 1474 1471 1468 1464 1460 1456 1452 1446 1441 1436 1432 1429 1428 1427 1425 1424 1423 1422 1422 1421 1422 1422 1423 1424 1425 1427 1429 1431 1433 1436 1438 1440 1441 1444 1446 1448 1450 1453 1455 1456 1459 1461 1463 1465 1468 1470 1471 1473 1474 1474 1474 1476 1476 1476 1477 1478 1478 1479 1479 1479 1479 1479 1480 1480 1481 1481 1481 1482
1501 1500 1499 1497 1496 1495 1493 1491 1489 1487 1485 1483 1482 1480 1478 1477 1474 1472 1469 1467 1463 1459 1456 1452 1448 1443 1439 1434 1431 1428 1425 1422 1420 1418 1416 1415 1415 1415 1415 1416 1418 1419 1420 1421 1423 1426 1428 1431 1434 1436 1439 1442 1444 1446 1449 1451 1453 1455 1458 1460 1462 1464 1466 1468 1469 1470 1470 1471 1473 1473 1473 1474 1475 1475 1475 1475 1475 1476 1476 1477 1477 1477 1478 1478 1479
1500 1498 1497 1496 1494 1493 1491 1489 1487 1485 1483 1482 1480 1478 1477 1475 1473 1470 1468 1465 1462 1459 1456 1452 1449 1445 1440 1435 1431 1428 1423 1420 1418 1414 1411 1409 1408 1408 1409 1410 1411 1412 1412 1414 1416 1419 1422 1424 1427 1431 1434 1437 1440 1442 1445 1448 1450 1452 1455 1457 1459 1461 1463 1464 1465 1466 1466 1467 1469 1470 1470 1471 1472 1472 1472 1472 1472 1473 1473 1474 1474 1475 1475 1476 1477
1498 1497 1495 1494 1492 1491 1489 1487 1485 1483 1481 1480 1478 1477 1475 1473 1471 1469 1466 1464 1461 1458 1455 1452 1449 1445 1440 1435 1431 1427 1423 1420 1416 1412 1408 1404 1402 1403 1404 1404 1405 1405 1405 1407 1409 1412 1415 1418 1421 1425 1429 1433 1435 1438 1441 1444 1446 1449 1451 1453 1455 1457 1459 1460 1461 1462 1463 1464 1465 1467 1468 1468 1469 1469 1469 1469 1469 1470 1471 1471 1471 1472 1472 1473 1474
1497 1495 1494 1492 1491 1489 1487 1486 1483 1481 1480 1478 1477 1475 1473 1472 1470 1468 1465 1462 1460 1457 1455 1452 1449 1445 1441 1437 1432 1428 1423 1419 1415 1411 1407 1402 1399 1399 1398 1398 1398 1398 1398 1400 1403 1405 1409 1412 1415 1419 1424 1428 1430 1433 1436 1439 1442 1445 1447 1448 1451 1453 1455 1456 1457 1459 1460 1460 1461 1463 1464 1465 1466 1466 1467 1467 1467 1467 1468 1468 1469 1469 1470 1471 1472
1495 1494 1492 1490 1489 1488 1486 1484 1482 1480 1478 1477 1475 1474 1472 1470 1468 1466 1464 1461 1458 1456 1453 1451 1448 1444 1441 1438 1433 1428 1424 1419 1415 1411 1406 1402 1398 1396 1394 1392 1392 1391 1392 1395 1397 1399 1401 1405 1409 1413 1417 1421 1425 1428 1431 1434 1437 1440 1442 1445 1448 1449 1450 1452 1454 1455 1456 1456 1457 1460 1461 1462 1462 1463 1464 1465 1465 1464 1465 1465 1466 1467 1467 1468 1469